Zurück zum Katalog

FENGYUN 1C DEB

AktivSSO
NORAD 30906·DEBRIS·🇨🇳 China

Gestartet May 10, 1999 von Taiyuan Satellite Launch Center

Loading…

Nächste Überflüge (nächste 24 Stunden)

TLE

AktuellSource: Space-Track

Epoche: Sep 14, 2026, 05:12 UTC

1 30906U 99025AYU 26257.21691280  .00000960  00000-0  46825-3 0  9997
2 30906  99.1777 256.8107 0075482 189.3236 170.6542 14.19091793679840

Verfolge FENGYUN 1C DEB in Echtzeit mit AllMySat

Download on the App Store